| time (UTC) | temp F | wind direction | speed knots | gust knots | rain 1hr in | rain 24hr in | rain mn in | humidity % | barometer mb |
| 20260509024051 | 57 | 0 | 0.0 | 5.2 | 0.00 | 0.00 | 0.00 | 79 | 1012.2 |
| 20260509023554 | 57 | 0 | 0.9 | 5.2 | 0.00 | 0.00 | 0.00 | 79 | 1012.2 |
| 20260509023053 | 58 | 0 | 0.0 | 1.7 | 0.00 | 0.00 | 0.00 | 78 | 1012.2 |
| 20260509022551 | 58 | 0 | 0.0 | 1.7 | 0.00 | 0.00 | 0.00 | 77 | 1012.2 |
| 20260509022052 | 59 | 164 | 0.0 | 1.7 | 0.00 | 0.00 | 0.00 | 75 | 1012.1 |
| 20260509021553 | 59 | 0 | 0.0 | 0.9 | 0.00 | 0.00 | 0.00 | 72 | 1011.7 |
| 20260509021053 | 59 | 0 | 0.0 | 0.0 | 0.00 | 0.00 | 0.00 | 68 | 1011.5 |
| 20260509020551 | 59 | 0 | 0.0 | 0.0 | 0.00 | 0.00 | 0.00 | 68 | 1011.4 |
| 20260509020055 | 59 | 0 | 0.0 | 0.0 | 0.00 | 0.00 | 0.00 | 70 | 1011.4 |
| 20260509015551 | 60 | 0 | 0.0 | 0.0 | 0.00 | 0.00 | 0.00 | 68 | 1011.4 |
| 20260509015054 | 60 | 0 | 0.0 | 0.0 | 0.00 | 0.00 | 0.00 | 68 | 1011.3 |
| 20260509014600 | 60 | 0 | 0.0 | 0.0 | 0.00 | 0.00 | 0.00 | 67 | 1011.2 |
| 20260509014052 | 60 | 0 | 0.0 | 0.0 | 0.00 | 0.00 | 0.00 | 66 | 1011.3 |
| 20260509013551 | 60 | 0 | 0.0 | 0.0 | 0.00 | 0.00 | 0.00 | 63 | 1011.2 |
| 20260509013103 | 60 | 0 | 0.0 | 0.0 | 0.00 | 0.00 | 0.00 | 63 | 1011.1 |
| 20260509012551 | 60 | 0 | 0.0 | 2.6 | 0.00 | 0.00 | 0.00 | 65 | 1011.2 |
| 20260509012052 | 60 | 0 | 0.0 | 2.6 | 0.00 | 0.00 | 0.00 | 65 | 1011.2 |
| 20260509011555 | 61 | 0 | 0.0 | 2.6 | 0.00 | 0.00 | 0.00 | 64 | 1011.2 |
| 20260509011055 | 61 | 98 | 0.0 | 0.0 | 0.00 | 0.00 | 0.00 | 67 | 1011.2 |
| 20260509010555 | 61 | 0 | 0.0 | 2.6 | 0.00 | 0.00 | 0.00 | 62 | 1011.4 |
| 20260509010056 | 61 | 0 | 0.0 | 2.6 | 0.00 | 0.00 | 0.00 | 63 | 1011.4 |
| 20260509005555 | 62 | 0 | 0.0 | 0.0 | 0.00 | 0.00 | 0.00 | 61 | 1011.3 |
| 20260509005053 | 62 | 0 | 0.0 | 0.0 | 0.00 | 0.00 | 0.00 | 57 | 1011.2 |
| 20260509004601 | 62 | 0 | 0.0 | 0.0 | 0.00 | 0.00 | 0.00 | 56 | 1011.1 |
| 20260509004052 | 62 | 0 | 0.0 | 0.0 | 0.00 | 0.00 | 0.00 | 55 | 1011.0 |
| 20260509003554 | 62 | 0 | 0.0 | 0.0 | 0.00 | 0.00 | 0.00 | 55 | 1011.0 |
| 20260509003056 | 63 | 0 | 0.0 | 0.0 | 0.00 | 0.00 | 0.00 | 55 | 1010.9 |
| 20260509002552 | 63 | 0 | 0.0 | 0.0 | 0.00 | 0.00 | 0.00 | 54 | 1010.9 |
| 20260509002054 | 63 | 0 | 0.0 | 0.0 | 0.00 | 0.00 | 0.00 | 54 | 1010.9 |
| 20260509001555 | 63 | 0 | 0.0 | 0.0 | 0.00 | 0.00 | 0.00 | 54 | 1010.8 |
| 20260509001053 | 63 | 0 | 0.0 | 0.0 | 0.00 | 0.00 | 0.00 | 53 | 1011.0 |
| 20260509000552 | 63 | 0 | 0.0 | 0.0 | 0.00 | 0.00 | 0.00 | 54 | 1011.1 |
| 20260509000056 | 63 | 0 | 0.0 | 0.0 | 0.00 | 0.00 | 0.00 | 54 | 1011.1 |
| 20260508235552 | 64 | 0 | 0.0 | 0.0 | 0.00 | 0.00 | 0.00 | 54 | 1011.2 |
| 20260508235055 | 64 | 0 | 0.0 | 0.0 | 0.00 | 0.00 | 0.00 | 53 | 1011.1 |
| 20260508234557 | 64 | 0 | 0.0 | 0.0 | 0.00 | 0.00 | 0.00 | 53 | 1010.9 |
| 20260508234056 | 64 | 0 | 0.0 | 0.0 | 0.00 | 0.00 | 0.00 | 52 | 1010.9 |
| 20260508233555 | 64 | 0 | 0.0 | 0.0 | 0.00 | 0.00 | 0.00 | 52 | 1010.9 |
| 20260508233110 | 64 | 0 | 0.0 | 0.0 | 0.00 | 0.00 | 0.00 | 52 | 1010.9 |
| 20260508232552 | 64 | 0 | 0.0 | 0.0 | 0.00 | 0.00 | 0.00 | 53 | 1010.8 |
| 20260508232052 | 64 | 0 | 0.0 | 0.0 | 0.00 | 0.00 | 0.00 | 54 | 1010.9 |
| 20260508231556 | 64 | 0 | 0.0 | 0.0 | 0.00 | 0.00 | 0.00 | 52 | 1010.9 |
| 20260508231057 | 64 | 0 | 0.0 | 0.0 | 0.00 | 0.00 | 0.00 | 52 | 1011.0 |
| 20260508230553 | 65 | 0 | 0.0 | 0.0 | 0.00 | 0.00 | 0.00 | 51 | 1010.9 |
| 20260508225552 | 65 | 0 | 0.0 | 0.0 | 0.00 | 0.00 | 0.00 | 51 | 1010.9 |
| 20260508225054 | 65 | 0 | 0.0 | 0.0 | 0.00 | 0.00 | 0.00 | 52 | 1010.9 |
| 20260508224558 | 66 | 0 | 0.0 | 0.0 | 0.00 | 0.00 | 0.00 | 51 | 1010.8 |
| 20260508224053 | 66 | 0 | 0.0 | 0.0 | 0.00 | 0.00 | 0.00 | 49 | 1010.8 |
| 20260508223552 | 66 | 0 | 0.0 | 0.0 | 0.00 | 0.00 | 0.00 | 49 | 1010.7 |
| 20260508223054 | 66 | 0 | 0.0 | 0.0 | 0.00 | 0.00 | 0.00 | 49 | 1010.7 |
| 20260508222554 | 66 | 0 | 0.0 | 0.0 | 0.00 | 0.00 | 0.00 | 51 | 1010.7 |
| 20260508222052 | 66 | 0 | 0.0 | 0.0 | 0.00 | 0.00 | 0.00 | 49 | 1010.7 |
| 20260508221555 | 67 | 0 | 0.0 | 0.0 | 0.00 | 0.00 | 0.00 | 50 | 1010.7 |
| 20260508221056 | 67 | 0 | 0.0 | 0.0 | 0.00 | 0.00 | 0.00 | 51 | 1010.7 |
| 20260508220555 | 67 | 0 | 0.0 | 0.0 | 0.00 | 0.00 | 0.00 | 48 | 1010.7 |
| 20260508220100 | 67 | 0 | 0.0 | 0.0 | 0.00 | 0.00 | 0.00 | 49 | 1010.5 |
| 20260508215555 | 67 | 0 | 0.0 | 0.0 | 0.00 | 0.00 | 0.00 | 50 | 1010.7 |
| 20260508215054 | 67 | 0 | 0.0 | 0.0 | 0.00 | 0.00 | 0.00 | 49 | 1010.5 |
| 20260508214559 | 67 | 0 | 0.0 | 2.6 | 0.00 | 0.00 | 0.00 | 49 | 1010.5 |
| 20260508214055 | 67 | 0 | 0.0 | 2.6 | 0.00 | 0.00 | 0.00 | 48 | 1010.5 |
| 20260508213556 | 67 | 0 | 0.0 | 2.6 | 0.00 | 0.00 | 0.00 | 49 | 1010.6 |
| 20260508213055 | 67 | 0 | 0.0 | 0.0 | 0.00 | 0.00 | 0.00 | 47 | 1010.7 |
| 20260508212553 | 67 | 0 | 0.0 | 0.0 | 0.00 | 0.00 | 0.00 | 45 | 1010.8 |
| 20260508212054 | 67 | 0 | 0.0 | 2.6 | 0.00 | 0.00 | 0.00 | 46 | 1010.9 |
| 20260508211553 | 68 | 0 | 0.0 | 2.6 | 0.00 | 0.00 | 0.00 | 51 | 1010.8 |
| 20260508211056 | 68 | 234 | 0.0 | 0.9 | 0.00 | 0.00 | 0.00 | 49 | 1010.8 |
| 20260508210555 | 68 | 0 | 0.0 | 0.9 | 0.00 | 0.00 | 0.00 | 48 | 1010.9 |
| 20260508205555 | 67 | 0 | 0.0 | 2.6 | 0.00 | 0.00 | 0.00 | 47 | 1011.1 |
| 20260508205056 | 67 | 210 | 0.0 | 2.6 | 0.00 | 0.00 | 0.00 | 45 | 1011.2 |
| 20260508204556 | 67 | 132 | 0.0 | 2.6 | 0.00 | 0.00 | 0.00 | 45 | 1011.4 |
| 20260508204056 | 67 | 0 | 0.0 | 0.9 | 0.00 | 0.00 | 0.00 | 47 | 1011.4 |
| 20260508203559 | 68 | 341 | 0.0 | 2.6 | 0.00 | 0.00 | 0.00 | 48 | 1011.6 |
| 20260508203103 | 68 | 0 | 0.9 | 2.6 | 0.00 | 0.00 | 0.00 | 47 | 1011.6 |
| 20260508202556 | 68 | 205 | 0.0 | 3.5 | 0.00 | 0.00 | 0.00 | 45 | 1011.7 |
| 20260508202056 | 69 | 214 | 0.0 | 3.5 | 0.00 | 0.00 | 0.00 | 47 | 1011.8 |
| 20260508201556 | 69 | 3 | 0.9 | 3.5 | 0.00 | 0.00 | 0.00 | 49 | 1011.9 |
| 20260508201056 | 68 | 0 | 0.0 | 0.9 | 0.00 | 0.00 | 0.00 | 49 | 1011.8 |
| 20260508200557 | 67 | 207 | 0.0 | 0.9 | 0.00 | 0.00 | 0.00 | 43 | 1011.9 |
| 20260508200058 | 67 | 0 | 0.0 | 0.9 | 0.00 | 0.00 | 0.00 | 47 | 1012.2 |
| 20260508195555 | 66 | 204 | 0.0 | 2.6 | 0.00 | 0.00 | 0.00 | 48 | 1012.1 |
| 20260508195055 | 66 | 213 | 0.0 | 2.6 | 0.00 | 0.00 | 0.00 | 47 | 1012.3 |
| 20260508194556 | 67 | 208 | 0.0 | 2.6 | 0.00 | 0.00 | 0.00 | 48 | 1012.2 |
| 20260508194056 | 67 | 0 | 0.9 | 2.6 | 0.00 | 0.00 | 0.00 | 46 | 1012.2 |
| 20260508193555 | 68 | 265 | 0.9 | 2.6 | 0.00 | 0.00 | 0.00 | 43 | 1012.4 |
| 20260508193112 | 69 | 320 | 0.9 | 2.6 | 0.00 | 0.00 | 0.00 | 47 | 1012.4 |
| 20260508192559 | 69 | 241 | 0.0 | 1.7 | 0.00 | 0.00 | 0.00 | 50 | 1012.4 |
| 20260508192055 | 70 | 0 | 0.0 | 5.2 | 0.00 | 0.00 | 0.00 | 49 | 1012.4 |
| 20260508191608 | 70 | 174 | 0.0 | 5.2 | 0.00 | 0.00 | 0.00 | 45 | 1012.5 |
| 20260508191052 | 71 | 217 | 0.9 | 5.2 | 0.00 | 0.00 | 0.00 | 41 | 1012.5 |
| 20260508190554 | 72 | 285 | 0.9 | 2.6 | 0.00 | 0.00 | 0.00 | 42 | 1012.5 |
| 20260508190055 | 73 | 302 | 0.0 | 2.6 | 0.00 | 0.00 | 0.00 | 40 | 1012.6 |
| 20260508185554 | 73 | 231 | 0.0 | 2.6 | 0.00 | 0.00 | 0.00 | 42 | 1012.7 |
| 20260508185056 | 72 | 192 | 0.0 | 2.6 | 0.00 | 0.00 | 0.00 | 43 | 1012.6 |
| 20260508184557 | 72 | 13 | 0.9 | 2.6 | 0.00 | 0.00 | 0.00 | 43 | 1012.8 |
| 20260508184055 | 71 | 290 | 0.9 | 2.6 | 0.00 | 0.00 | 0.00 | 43 | 1012.8 |
| 20260508183552 | 71 | 164 | 0.9 | 2.6 | 0.00 | 0.00 | 0.00 | 42 | 1012.8 |
| 20260508183056 | 70 | 46 | 0.0 | 2.6 | 0.00 | 0.00 | 0.00 | 46 | 1012.9 |
| 20260508182552 | 69 | 208 | 0.0 | 3.5 | 0.00 | 0.00 | 0.00 | 43 | 1013.1 |
| 20260508182052 | 69 | 164 | 0.9 | 3.5 | 0.00 | 0.00 | 0.00 | 43 | 1013.2 |
| 20260508181559 | 69 | 21 | 0.9 | 1.7 | 0.00 | 0.00 | 0.00 | 45 | 1013.3 |
| 20260508181052 | 70 | 288 | 0.0 | 1.7 | 0.00 | 0.00 | 0.00 | 42 | 1013.4 |
| 20260508180552 | 70 | 180 | 0.9 | 4.3 | 0.00 | 0.00 | 0.00 | 41 | 1013.5 |
| 20260508180057 | 70 | 214 | 0.9 | 4.3 | 0.00 | 0.00 | 0.00 | 41 | 1013.5 |
| 20260508175555 | 71 | 220 | 0.9 | 4.3 | 0.00 | 0.00 | 0.00 | 47 | 1013.5 |
| 20260508175052 | 70 | 239 | 0.9 | 4.3 | 0.00 | 0.00 | 0.00 | 42 | 1013.7 |
| 20260508174556 | 70 | 18 | 0.9 | 3.5 | 0.00 | 0.00 | 0.00 | 46 | 1013.7 |
| 20260508174052 | 70 | 295 | 0.9 | 3.5 | 0.00 | 0.00 | 0.00 | 41 | 1013.7 |
| 20260508173552 | 71 | 58 | 0.9 | 3.5 | 0.00 | 0.00 | 0.00 | 47 | 1013.7 |
| 20260508173053 | 71 | 105 | 0.9 | 3.5 | 0.00 | 0.00 | 0.00 | 44 | 1013.9 |
| 20260508172553 | 70 | 183 | 0.9 | 3.5 | 0.00 | 0.00 | 0.00 | 44 | 1014.0 |
| 20260508172052 | 70 | 278 | 0.9 | 3.5 | 0.00 | 0.00 | 0.00 | 46 | 1014.1 |
| 20260508171605 | 70 | 217 | 0.9 | 3.5 | 0.00 | 0.00 | 0.00 | 47 | 1014.1 |
| 20260508171051 | 71 | 136 | 0.9 | 3.5 | 0.00 | 0.00 | 0.00 | 45 | 1014.1 |
| 20260508170553 | 71 | 0 | 0.9 | 4.3 | 0.00 | 0.00 | 0.00 | 45 | 1014.2 |
| 20260508170101 | 72 | 108 | 0.9 | 4.3 | 0.00 | 0.00 | 0.00 | 43 | 1014.2 |
| 20260508165552 | 71 | 270 | 0.9 | 4.3 | 0.00 | 0.00 | 0.00 | 45 | 1014.4 |
| 20260508165055 | 71 | 20 | 0.9 | 4.3 | 0.00 | 0.00 | 0.00 | 48 | 1014.6 |
| 20260508164557 | 71 | 331 | 0.9 | 4.3 | 0.00 | 0.00 | 0.00 | 44 | 1014.7 |
| 20260508164053 | 70 | 189 | 0.9 | 4.3 | 0.00 | 0.00 | 0.00 | 47 | 1014.8 |
| 20260508163552 | 70 | 222 | 0.9 | 3.5 | 0.00 | 0.00 | 0.00 | 46 | 1015.0 |
| 20260508163054 | 69 | 169 | 0.9 | 3.5 | 0.00 | 0.00 | 0.00 | 47 | 1015.0 |
| 20260508162552 | 69 | 199 | 0.9 | 3.5 | 0.00 | 0.00 | 0.00 | 41 | 1015.1 |
| 20260508162055 | 69 | 43 | 0.9 | 6.1 | 0.00 | 0.00 | 0.00 | 46 | 1015.2 |
| 20260508161556 | 69 | 239 | 1.7 | 6.1 | 0.00 | 0.00 | 0.00 | 46 | 1015.3 |
| 20260508161052 | 69 | 26 | 0.9 | 3.5 | 0.00 | 0.00 | 0.00 | 44 | 1015.3 |
| 20260508160552 | 69 | 141 | 0.9 | 2.6 | 0.00 | 0.00 | 0.00 | 47 | 1015.3 |
| 20260508160056 | 69 | 0 | 0.9 | 2.6 | 0.00 | 0.00 | 0.00 | 46 | 1015.4 |
| 20260508155551 | 68 | 200 | 0.9 | 2.6 | 0.00 | 0.00 | 0.00 | 51 | 1015.4 |
| 20260508155054 | 68 | 200 | 0.9 | 2.6 | 0.00 | 0.00 | 0.00 | 48 | 1015.4 |
| 20260508154557 | 68 | 198 | 0.9 | 2.6 | 0.00 | 0.00 | 0.00 | 46 | 1015.6 |
| 20260508154054 | 67 | 357 | 0.9 | 2.6 | 0.00 | 0.00 | 0.00 | 53 | 1015.6 |
| 20260508153551 | 67 | 192 | 0.0 | 2.6 | 0.00 | 0.00 | 0.00 | 50 | 1015.6 |
| 20260508153056 | 67 | 217 | 0.9 | 2.6 | 0.00 | 0.00 | 0.00 | 49 | 1015.7 |
| 20260508152557 | 67 | 204 | 0.9 | 2.6 | 0.00 | 0.00 | 0.00 | 48 | 1015.8 |
| 20260508152052 | 66 | 217 | 0.9 | 2.6 | 0.00 | 0.00 | 0.00 | 49 | 1016.0 |
| 20260508151558 | 66 | 177 | 0.9 | 2.6 | 0.00 | 0.00 | 0.00 | 49 | 1016.1 |
| 20260508151052 | 66 | 305 | 0.0 | 1.7 | 0.00 | 0.00 | 0.00 | 51 | 1016.0 |
| 20260508150554 | 66 | 300 | 0.9 | 2.6 | 0.00 | 0.00 | 0.00 | 52 | 1016.1 |
| 20260508150054 | 65 | 166 | 0.9 | 2.6 | 0.00 | 0.00 | 0.00 | 52 | 1016.2 |
| 20260508145555 | 65 | 134 | 0.9 | 1.7 | 0.00 | 0.00 | 0.00 | 51 | 1016.2 |
| 20260508145052 | 65 | 102 | 0.0 | 1.7 | 0.00 | 0.00 | 0.00 | 51 | 1016.3 |
| 20260508144552 | 64 | 138 | 0.9 | 5.2 | 0.00 | 0.00 | 0.00 | 53 | 1016.2 |
| 20260508144054 | 64 | 174 | 0.0 | 5.2 | 0.00 | 0.00 | 0.00 | 53 | 1016.4 |
| 20260508143558 | 63 | 172 | 0.0 | 3.5 | 0.00 | 0.00 | 0.00 | 49 | 1016.3 |
| 20260508143102 | 63 | 288 | 0.9 | 3.5 | 0.00 | 0.00 | 0.00 | 52 | 1016.3 |
| 20260508142555 | 63 | 225 | 0.9 | 3.5 | 0.00 | 0.00 | 0.00 | 53 | 1016.3 |
| 20260508142053 | 63 | 156 | 0.9 | 1.7 | 0.00 | 0.00 | 0.00 | 54 | 1016.4 |
| 20260508141554 | 62 | 189 | 0.0 | 2.6 | 0.00 | 0.00 | 0.00 | 54 | 1016.4 |
| 20260508141052 | 62 | 191 | 0.0 | 2.6 | 0.00 | 0.00 | 0.00 | 54 | 1016.4 |
| 20260508140552 | 61 | 213 | 0.9 | 2.6 | 0.00 | 0.00 | 0.00 | 51 | 1016.5 |
| 20260508140054 | 61 | 174 | 0.9 | 2.6 | 0.00 | 0.00 | 0.00 | 53 | 1016.5 |
| 20260508135555 | 60 | 162 | 0.9 | 2.6 | 0.00 | 0.00 | 0.00 | 54 | 1016.6 |
| 20260508135056 | 60 | 174 | 0.9 | 3.5 | 0.00 | 0.00 | 0.00 | 54 | 1016.5 |
| 20260508134559 | 59 | 210 | 0.9 | 4.3 | 0.00 | 0.00 | 0.00 | 54 | 1016.5 |
| 20260508134054 | 59 | 200 | 0.0 | 4.3 | 0.00 | 0.00 | 0.00 | 54 | 1016.6 |
| 20260508133556 | 59 | 281 | 0.9 | 3.5 | 0.00 | 0.00 | 0.00 | 54 | 1016.5 |
| 20260508133056 | 59 | 162 | 0.9 | 3.5 | 0.00 | 0.00 | 0.00 | 55 | 1016.5 |
| 20260508132554 | 58 | 56 | 0.9 | 3.5 | 0.00 | 0.00 | 0.00 | 58 | 1016.5 |
| 20260508132052 | 58 | 286 | 0.9 | 5.2 | 0.00 | 0.00 | 0.00 | 56 | 1016.5 |
| 20260508131609 | 58 | 6 | 0.9 | 5.2 | 0.00 | 0.00 | 0.00 | 57 | 1016.5 |
| 20260508131052 | 58 | 128 | 0.9 | 2.6 | 0.00 | 0.00 | 0.00 | 56 | 1016.5 |
| 20260508130552 | 57 | 0 | 0.0 | 1.7 | 0.00 | 0.00 | 0.00 | 57 | 1016.5 |
| 20260508130111 | 57 | 0 | 0.9 | 1.7 | 0.00 | 0.00 | 0.00 | 55 | 1016.4 |
| 20260508125552 | 57 | 150 | 0.0 | 1.7 | 0.00 | 0.00 | 0.00 | 58 | 1016.5 |
| 20260508125051 | 57 | 182 | 0.0 | 1.7 | 0.00 | 0.00 | 0.00 | 57 | 1016.5 |
| 20260508124558 | 56 | 0 | 0.0 | 1.7 | 0.00 | 0.00 | 0.00 | 56 | 1016.4 |
| 20260508124052 | 56 | 148 | 0.0 | 1.7 | 0.00 | 0.00 | 0.00 | 60 | 1016.4 |
| 20260508123554 | 55 | 0 | 0.0 | 1.7 | 0.00 | 0.00 | 0.00 | 60 | 1016.4 |
| 20260508123112 | 55 | 0 | 0.9 | 1.7 | 0.00 | 0.00 | 0.00 | 58 | 1016.3 |
| 20260508122551 | 54 | 0 | 0.0 | 1.7 | 0.00 | 0.00 | 0.00 | 60 | 1016.2 |
| 20260508122052 | 54 | 136 | 0.0 | 1.7 | 0.00 | 0.00 | 0.00 | 60 | 1016.2 |
| 20260508121607 | 53 | 0 | 0.0 | 1.7 | 0.00 | 0.00 | 0.00 | 61 | 1016.3 |
| 20260508121051 | 53 | 224 | 0.0 | 1.7 | 0.00 | 0.00 | 0.00 | 60 | 1016.2 |
| 20260508120552 | 53 | 195 | 0.0 | 1.7 | 0.00 | 0.00 | 0.00 | 61 | 1016.3 |
| 20260508120058 | 52 | 0 | 0.0 | 1.7 | 0.00 | 0.00 | 0.00 | 61 | 1016.2 |
| 20260508115554 | 52 | 0 | 0.0 | 0.9 | 0.00 | 0.00 | 0.00 | 65 | 1016.1 |
| 20260508115053 | 51 | 0 | 0.0 | 0.9 | 0.00 | 0.00 | 0.00 | 66 | 1016.1 |
| 20260508114557 | 51 | 0 | 0.0 | 0.0 | 0.00 | 0.00 | 0.00 | 67 | 1016.1 |
| 20260508114052 | 50 | 0 | 0.0 | 0.0 | 0.00 | 0.00 | 0.00 | 68 | 1016.1 |
| 20260508113556 | 49 | 0 | 0.0 | 0.0 | 0.00 | 0.00 | 0.00 | 70 | 1015.9 |
| 20260508113102 | 48 | 0 | 0.0 | 0.0 | 0.00 | 0.00 | 0.00 | 71 | 1015.9 |
| 20260508112551 | 47 | 0 | 0.0 | 0.0 | 0.00 | 0.00 | 0.00 | 73 | 1015.7 |
| 20260508112052 | 47 | 0 | 0.0 | 0.0 | 0.00 | 0.00 | 0.00 | 74 | 1015.6 |
| 20260508111555 | 47 | 0 | 0.0 | 0.0 | 0.00 | 0.00 | 0.00 | 75 | 1015.7 |
| 20260508111055 | 46 | 0 | 0.0 | 0.0 | 0.00 | 0.00 | 0.00 | 74 | 1015.7 |
| 20260508110555 | 47 | 0 | 0.0 | 0.0 | 0.00 | 0.00 | 0.00 | 72 | 1015.7 |
| 20260508110057 | 47 | 0 | 0.0 | 0.0 | 0.00 | 0.00 | 0.00 | 73 | 1015.6 |
| 20260508105552 | 47 | 0 | 0.0 | 0.0 | 0.00 | 0.00 | 0.00 | 73 | 1015.5 |
| 20260508105053 | 47 | 0 | 0.0 | 0.0 | 0.00 | 0.00 | 0.00 | 74 | 1015.5 |
| 20260508104619 | 47 | 0 | 0.0 | 0.0 | 0.00 | 0.00 | 0.00 | 73 | 1015.5 |
| 20260508104054 | 47 | 0 | 0.0 | 0.0 | 0.00 | 0.00 | 0.00 | 74 | 1015.5 |
| 20260508103552 | 47 | 0 | 0.0 | 0.0 | 0.00 | 0.00 | 0.00 | 73 | 1015.6 |
| 20260508103056 | 47 | 0 | 0.0 | 0.0 | 0.00 | 0.00 | 0.00 | 73 | 1015.5 |
| 20260508102551 | 47 | 0 | 0.0 | 0.0 | 0.00 | 0.00 | 0.00 | 73 | 1015.6 |
| 20260508102053 | 47 | 0 | 0.0 | 0.0 | 0.00 | 0.00 | 0.00 | 75 | 1015.6 |
| 20260508101608 | 47 | 0 | 0.0 | 0.0 | 0.00 | 0.00 | 0.00 | 75 | 1015.4 |
| 20260508101054 | 47 | 0 | 0.0 | 0.0 | 0.00 | 0.00 | 0.00 | 74 | 1015.5 |
| 20260508100553 | 47 | 0 | 0.0 | 0.0 | 0.00 | 0.00 | 0.00 | 74 | 1015.6 |
| 20260508100057 | 47 | 0 | 0.0 | 0.0 | 0.00 | 0.00 | 0.00 | 74 | 1015.7 |
| 20260508095553 | 47 | 0 | 0.0 | 0.0 | 0.00 | 0.00 | 0.00 | 74 | 1015.8 |
| 20260508095052 | 47 | 0 | 0.0 | 0.0 | 0.00 | 0.00 | 0.00 | 74 | 1015.8 |
| 20260508094556 | 46 | 0 | 0.0 | 0.0 | 0.00 | 0.00 | 0.00 | 73 | 1015.7 |
| 20260508094051 | 46 | 0 | 0.0 | 0.0 | 0.00 | 0.00 | 0.00 | 75 | 1015.7 |
| 20260508093558 | 46 | 0 | 0.0 | 0.0 | 0.00 | 0.00 | 0.00 | 74 | 1015.7 |
| 20260508093101 | 46 | 0 | 0.0 | 0.0 | 0.00 | 0.00 | 0.00 | 75 | 1015.7 |
| 20260508092555 | 46 | 0 | 0.0 | 0.0 | 0.00 | 0.00 | 0.00 | 75 | 1015.7 |
| 20260508092056 | 46 | 0 | 0.0 | 0.0 | 0.00 | 0.00 | 0.00 | 75 | 1015.7 |
| 20260508091614 | 46 | 0 | 0.0 | 0.0 | 0.00 | 0.00 | 0.00 | 75 | 1015.7 |
| 20260508091055 | 46 | 0 | 0.0 | 0.0 | 0.00 | 0.00 | 0.00 | 76 | 1015.6 |
| 20260508090554 | 45 | 0 | 0.0 | 0.0 | 0.00 | 0.00 | 0.00 | 75 | 1015.7 |
| 20260508090108 | 45 | 0 | 0.0 | 0.0 | 0.00 | 0.00 | 0.00 | 73 | 1015.8 |
| 20260508085552 | 45 | 0 | 0.0 | 0.0 | 0.00 | 0.00 | 0.00 | 72 | 1015.8 |
| 20260508085056 | 45 | 0 | 0.0 | 0.0 | 0.00 | 0.00 | 0.00 | 71 | 1015.7 |
| 20260508084556 | 45 | 0 | 0.0 | 0.0 | 0.00 | 0.00 | 0.00 | 72 | 1015.6 |
| 20260508084056 | 45 | 0 | 0.0 | 0.0 | 0.00 | 0.00 | 0.00 | 71 | 1015.6 |
| 20260508083551 | 45 | 0 | 0.0 | 0.0 | 0.00 | 0.00 | 0.00 | 71 | 1015.6 |
| 20260508083110 | 45 | 0 | 0.0 | 0.0 | 0.00 | 0.00 | 0.00 | 71 | 1015.6 |
| 20260508082551 | 45 | 0 | 0.0 | 0.0 | 0.00 | 0.00 | 0.00 | 70 | 1015.5 |
| 20260508082053 | 45 | 0 | 0.0 | 0.0 | 0.00 | 0.00 | 0.00 | 72 | 1015.5 |
| 20260508081601 | 45 | 0 | 0.0 | 0.0 | 0.00 | 0.00 | 0.00 | 72 | 1015.6 |
| 20260508081057 | 45 | 0 | 0.0 | 0.0 | 0.00 | 0.00 | 0.00 | 72 | 1015.5 |
| 20260508080552 | 45 | 0 | 0.0 | 0.0 | 0.00 | 0.00 | 0.00 | 71 | 1015.5 |
| 20260508080111 | 45 | 0 | 0.0 | 0.0 | 0.00 | 0.00 | 0.00 | 71 | 1015.5 |
| 20260508075551 | 45 | 0 | 0.0 | 0.0 | 0.00 | 0.00 | 0.00 | 72 | 1015.5 |
| 20260508075052 | 45 | 0 | 0.0 | 0.0 | 0.00 | 0.00 | 0.00 | 72 | 1015.5 |
| 20260508074553 | 45 | 0 | 0.0 | 0.0 | 0.00 | 0.00 | 0.00 | 73 | 1015.6 |
| 20260508074055 | 45 | 0 | 0.0 | 0.0 | 0.00 | 0.00 | 0.00 | 72 | 1015.6 |
| 20260508073552 | 45 | 0 | 0.0 | 0.0 | 0.00 | 0.00 | 0.00 | 71 | 1015.5 |
| 20260508073055 | 45 | 0 | 0.0 | 0.0 | 0.00 | 0.00 | 0.00 | 71 | 1015.5 |
| 20260508072551 | 45 | 0 | 0.0 | 0.0 | 0.00 | 0.00 | 0.00 | 72 | 1015.5 |
| 20260508072053 | 45 | 0 | 0.0 | 0.0 | 0.00 | 0.00 | 0.00 | 71 | 1015.6 |
| 20260508071601 | 46 | 0 | 0.0 | 0.0 | 0.00 | 0.00 | 0.00 | 70 | 1015.7 |
| 20260508071053 | 46 | 0 | 0.0 | 0.0 | 0.00 | 0.00 | 0.00 | 71 | 1015.8 |
| 20260508070554 | 45 | 0 | 0.0 | 0.0 | 0.00 | 0.00 | 0.00 | 71 | 1015.7 |
| 20260508070139 | 45 | 0 | 0.0 | 0.0 | 0.00 | 0.00 | 0.00 | 73 | 1015.8 |
| 20260508065555 | 45 | 0 | 0.0 | 0.0 | 0.00 | 0.00 | 0.00 | 72 | 1015.9 |
| 20260508065053 | 45 | 0 | 0.0 | 0.0 | 0.00 | 0.00 | 0.00 | 72 | 1015.8 |
| 20260508064608 | 45 | 0 | 0.0 | 0.0 | 0.00 | 0.00 | 0.00 | 72 | 1015.7 |
| 20260508064057 | 45 | 0 | 0.0 | 0.0 | 0.00 | 0.00 | 0.00 | 72 | 1015.8 |
| 20260508063552 | 45 | 0 | 0.0 | 0.0 | 0.00 | 0.00 | 0.00 | 71 | 1016.0 |
| 20260508063052 | 45 | 0 | 0.0 | 0.0 | 0.00 | 0.00 | 0.00 | 71 | 1016.1 |
| 20260508062552 | 45 | 0 | 0.0 | 0.0 | 0.00 | 0.00 | 0.00 | 70 | 1016.2 |
| 20260508062055 | 45 | 0 | 0.0 | 0.0 | 0.00 | 0.00 | 0.00 | 71 | 1016.3 |
| 20260508061603 | 45 | 0 | 0.0 | 0.0 | 0.00 | 0.00 | 0.00 | 71 | 1016.3 |
| 20260508061058 | 45 | 0 | 0.0 | 0.0 | 0.00 | 0.00 | 0.00 | 72 | 1016.4 |
| 20260508060552 | 45 | 0 | 0.0 | 0.0 | 0.00 | 0.00 | 0.00 | 74 | 1016.4 |
| 20260508060055 | 45 | 0 | 0.0 | 0.0 | 0.00 | 0.00 | 0.00 | 74 | 1016.4 |
| 20260508055554 | 45 | 0 | 0.0 | 0.0 | 0.00 | 0.00 | 0.00 | 73 | 1016.4 |
| 20260508055054 | 45 | 0 | 0.0 | 0.0 | 0.00 | 0.00 | 0.00 | 72 | 1016.5 |
| 20260508054556 | 45 | 0 | 0.0 | 0.0 | 0.00 | 0.00 | 0.00 | 71 | 1016.4 |
| 20260508054056 | 46 | 0 | 0.0 | 0.0 | 0.00 | 0.00 | 0.00 | 71 | 1016.4 |
| 20260508053552 | 46 | 0 | 0.0 | 0.0 | 0.00 | 0.00 | 0.00 | 71 | 1016.3 |
| 20260508053104 | 46 | 0 | 0.0 | 0.0 | 0.00 | 0.00 | 0.00 | 70 | 1016.4 |
| 20260508052552 | 46 | 0 | 0.0 | 0.0 | 0.00 | 0.00 | 0.00 | 71 | 1016.4 |
| 20260508052052 | 46 | 0 | 0.0 | 0.0 | 0.00 | 0.00 | 0.00 | 71 | 1016.3 |
| 20260508051555 | 46 | 0 | 0.0 | 0.0 | 0.00 | 0.00 | 0.00 | 71 | 1016.3 |
| 20260508051051 | 46 | 0 | 0.0 | 0.0 | 0.00 | 0.00 | 0.00 | 70 | 1016.3 |
| 20260508050552 | 46 | 0 | 0.0 | 0.0 | 0.00 | 0.00 | 0.00 | 71 | 1016.3 |
| 20260508050100 | 46 | 0 | 0.0 | 0.0 | 0.00 | 0.00 | 0.00 | 72 | 1016.3 |
| 20260508045551 | 45 | 0 | 0.0 | 0.0 | 0.00 | 0.00 | 0.00 | 70 | 1016.3 |
| 20260508045054 | 45 | 0 | 0.0 | 0.0 | 0.00 | 0.00 | 0.00 | 73 | 1016.2 |
| 20260508044554 | 45 | 0 | 0.0 | 0.0 | 0.00 | 0.00 | 0.00 | 76 | 1016.2 |
| 20260508044054 | 45 | 0 | 0.0 | 0.0 | 0.00 | 0.00 | 0.00 | 76 | 1016.2 |
| 20260508043551 | 45 | 0 | 0.0 | 0.0 | 0.00 | 0.00 | 0.00 | 76 | 1016.3 |
| 20260508043102 | 45 | 0 | 0.0 | 0.0 | 0.00 | 0.00 | 0.00 | 76 | 1016.4 |
| 20260508042552 | 45 | 0 | 0.0 | 0.0 | 0.00 | 0.00 | 0.00 | 79 | 1016.2 |
| 20260508042051 | 45 | 0 | 0.0 | 0.0 | 0.00 | 0.00 | 0.00 | 78 | 1016.3 |
| 20260508041554 | 45 | 0 | 0.0 | 0.0 | 0.00 | 0.00 | 0.00 | 76 | 1016.3 |
| 20260508041057 | 45 | 0 | 0.0 | 0.0 | 0.00 | 0.00 | 0.00 | 74 | 1016.3 |
| 20260508040551 | 45 | 0 | 0.0 | 0.0 | 0.00 | 0.00 | 0.00 | 78 | 1016.2 |
| 20260508040057 | 45 | 0 | 0.0 | 0.0 | 0.00 | 0.00 | 0.00 | 77 | 1016.2 |
| 20260508035551 | 45 | 0 | 0.0 | 0.0 | 0.00 | 0.00 | 0.00 | 79 | 1016.1 |
| 20260508035055 | 45 | 0 | 0.0 | 0.0 | 0.00 | 0.00 | 0.00 | 76 | 1016.2 |
| 20260508034558 | 45 | 0 | 0.0 | 0.0 | 0.00 | 0.00 | 0.00 | 76 | 1016.1 |
| 20260508034050 | 45 | 0 | 0.0 | 0.0 | 0.00 | 0.00 | 0.00 | 74 | 1016.3 |
| 20260508033550 | 45 | 0 | 0.0 | 0.0 | 0.00 | 0.00 | 0.00 | 76 | 1016.3 |
| 20260508033055 | 45 | 0 | 0.0 | 0.0 | 0.00 | 0.00 | 0.00 | 77 | 1016.3 |
| 20260508032552 | 46 | 0 | 0.0 | 0.0 | 0.00 | 0.00 | 0.00 | 76 | 1016.3 |
| 20260508032054 | 46 | 0 | 0.0 | 0.0 | 0.00 | 0.00 | 0.00 | 74 | 1016.3 |
| 20260508031601 | 46 | 0 | 0.0 | 0.0 | 0.00 | 0.00 | 0.00 | 72 | 1016.3 |
| 20260508031057 | 46 | 0 | 0.0 | 0.0 | 0.00 | 0.00 | 0.00 | 72 | 1016.2 |
| 20260508030554 | 46 | 0 | 0.0 | 0.0 | 0.00 | 0.00 | 0.00 | 71 | 1016.3 |
| 20260508030104 | 46 | 0 | 0.0 | 0.0 | 0.00 | 0.00 | 0.00 | 73 | 1016.2 |
| 20260508025553 | 46 | 0 | 0.0 | 0.0 | 0.00 | 0.00 | 0.00 | 73 | 1016.2 |
| 20260508025053 | 46 | 0 | 0.0 | 0.0 | 0.00 | 0.00 | 0.00 | 73 | 1016.1 |
| 20260508024600 | 46 | 0 | 0.0 | 0.0 | 0.00 | 0.00 | 0.00 | 72 | 1016.2 |